Weather in Kstinino

Russia / Kirov Oblast     58°26′43″N   49°46′47″E
temp.,
°C
wind,
m/s
gust,
m/s
humid.,
%
clouds,
%
prec.,
mm/h
press.,
hPa
HPBL,
m
7 july, thu
thu700:00+18wsw127628 0.1 101312
03:00+16sse11866 0.3 101411
06:00+20sw11795 0.0 1015148
09:00+25wsw12583 0.0 1015605
12:00+29wsw23459 0.0 10151941
15:00+25ssw236386 0.1 1015238
18:00+24s367139 0.0 1016181
21:00+20s368117 0.0 1016103
8 july, fri
fri800:00+19ssw36881 0.0 1016104
03:00+17s36938 0.0 1016119
06:00+19s279335 1.7 1017218
09:00+26sw35615 2.3 1016772
12:00+26w357183 3.1 1016840
15:00+27sw2565100 4.9 1014731
18:00+19se2396100 17.1 1015104
21:00+18sse3595100 19.9 101588
9 july, sat
sat900:00+18w3996100 1.1 1015253
03:00+17s249794 1.6 1015104
06:00+19sse2392100 0.5 1015190
09:00+24ssw227084 0.5 1015674
12:00+27s125783 0.4 1014897
15:00+24s3681100 2.8 1014501
18:00+21ssw258896 1.4 1013302
21:00+18s249695 1.7 101478
10 july, sun
sun1000:00+16sse369699 0.4 1014143
03:00+15sse2497100 0.4 101474
06:00+18sse238996 0.0 1015180
09:00+23s237098 0.0 1015696
12:00+23ssw4583100 3.0 1015669
15:00+21ssw2682100 3.2 1016260
18:00+23ssw137510 0.0 1016352
21:00+18s23915 0.3 101746
11 july, mon
mon1100:00+16sse229444 0.0 101742
03:00+17sse119398 0.0 101827
06:00+19sse238574 0.0 1018193
09:00+24s246330 0.0 1018861
12:00+27s355226 0.0 10181784
15:00+22sse358091 1.9 1019173
18:00+22se2486100 3.0 101974
21:00+19sse239012 3.0 102043